Time,TemperatureF,DewpointF,PressureIn,WindDirection,WindDirectionDegrees,WindSpeedMPH,WindSpeedGustMPH,Humidity,HourlyPrecipIn,Conditions,Clouds,dailyrainin,SolarRadiationWatts/m^2,SoftwareType,DateUTC
2013-02-07 00:03:00,31.6,26.0,30.13,South,178,6.9,8.7,81,0.00,,,0.00,0,TxWx,2013-02-07 06:03:00,
2013-02-07 00:09:00,31.5,26.0,30.13,SSE,156,2.1,2.1,81,0.00,,,0.00,0,TxWx,2013-02-07 06:09:00,
2013-02-07 00:14:00,31.3,25.0,30.13,South,182,4.2,5.7,82,0.00,,,0.00,0,TxWx,2013-02-07 06:14:00,
2013-02-07 00:19:00,31.3,25.0,30.13,South,191,7.8,7.8,82,0.00,,,0.00,0,TxWx,2013-02-07 06:19:00,
2013-02-07 00:25:00,31.3,25.0,30.13,SSE,159,6.9,6.9,82,0.00,,,0.00,0,TxWx,2013-02-07 06:25:00,
2013-02-07 00:30:00,31.3,25.0,30.12,SSE,149,3.9,5.4,83,0.00,,,0.00,0,TxWx,2013-02-07 06:30:00,
2013-02-07 00:35:00,31.2,25.0,30.13,SSW,195,4.2,4.5,83,0.00,,,0.00,0,TxWx,2013-02-07 06:35:00,
2013-02-07 00:40:00,31.1,25.0,30.13,SSW,205,6.6,7.5,83,0.00,,,0.00,0,TxWx,2013-02-07 06:40:00,
2013-02-07 00:45:00,31.1,25.0,30.12,SSE,158,9.3,9.6,83,0.00,,,0.00,0,TxWx,2013-02-07 06:45:00,
2013-02-07 00:50:00,31.0,26.0,30.12,SE,142,6.3,7.5,84,0.00,,,0.00,0,TxWx,2013-02-07 06:50:00,
2013-02-07 00:56:00,30.9,26.0,30.12,SSW,205,1.8,2.1,84,0.00,,,0.00,0,TxWx,2013-02-07 06:56:00,
2013-02-07 01:01:00,30.9,26.0,30.12,SSE,168,6.3,6.3,84,0.00,,,0.00,0,TxWx,2013-02-07 07:01:00,
2013-02-07 01:06:00,30.8,26.0,30.12,SSE,162,1.5,1.5,84,0.00,,,0.00,0,TxWx,2013-02-07 07:06:00,
2013-02-07 01:11:00,30.7,26.0,30.12,SE,134,1.5,1.5,85,0.00,,,0.00,0,TxWx,2013-02-07 07:11:00,
2013-02-07 01:16:00,30.6,26.0,30.12,South,177,2.7,3.0,85,0.00,,,0.00,0,TxWx,2013-02-07 07:16:00,
2013-02-07 01:21:00,30.6,26.0,30.12,SE,133,3.6,3.6,85,0.00,,,0.00,0,TxWx,2013-02-07 07:21:00,
2013-02-07 01:26:00,30.6,26.0,30.12,SSE,154,1.5,1.8,85,0.00,,,0.00,0,TxWx,2013-02-07 07:26:00,
2013-02-07 01:32:00,30.5,26.0,30.13,SSE,151,2.7,2.7,85,0.00,,,0.00,0,TxWx,2013-02-07 07:32:00,
2013-02-07 01:37:00,30.4,25.0,30.12,SE,134,2.1,2.1,86,0.00,,,0.00,0,TxWx,2013-02-07 07:37:00,
2013-02-07 01:42:00,30.3,25.0,30.12,North,355,2.7,2.7,86,0.00,,,0.00,0,TxWx,2013-02-07 07:42:00,
2013-02-07 01:47:00,30.2,25.0,30.12,SSE,158,3.3,3.6,86,0.00,,,0.00,0,TxWx,2013-02-07 07:47:00,
2013-02-07 01:53:00,30.2,25.0,30.12,SE,136,3.3,3.3,86,0.00,,,0.00,0,TxWx,2013-02-07 07:53:00,
2013-02-07 01:58:00,30.1,25.0,30.13,SE,145,2.7,2.7,86,0.00,,,0.00,0,TxWx,2013-02-07 07:58:00,
2013-02-07 02:03:00,30.0,25.0,30.12,East,101,3.0,3.0,87,0.00,,,0.00,0,TxWx,2013-02-07 08:03:00,
2013-02-07 02:08:00,30.0,25.0,30.12,SE,127,3.9,4.2,87,0.00,,,0.00,0,TxWx,2013-02-07 08:08:00,
2013-02-07 02:14:00,29.9,25.0,30.12,SE,124,2.4,2.4,87,0.00,,,0.00,0,TxWx,2013-02-07 08:14:00,
2013-02-07 02:19:00,30.0,26.0,30.12,ESE,109,4.5,4.8,87,0.00,,,0.00,0,TxWx,2013-02-07 08:19:00,
2013-02-07 02:24:00,30.0,26.0,30.12,SSE,151,3.9,3.9,87,0.00,,,0.00,0,TxWx,2013-02-07 08:24:00,
2013-02-07 02:30:00,30.0,26.0,30.11,SE,143,4.8,4.8,87,0.00,,,0.00,0,TxWx,2013-02-07 08:30:00,
2013-02-07 02:35:00,30.1,26.0,30.11,ESE,123,3.0,3.6,87,0.00,,,0.00,0,TxWx,2013-02-07 08:35:00,
2013-02-07 02:40:00,30.1,26.0,30.11,SE,139,4.2,4.2,87,0.00,,,0.00,0,TxWx,2013-02-07 08:40:00,
2013-02-07 02:45:00,30.1,26.0,30.11,ESE,123,2.1,2.4,87,0.00,,,0.00,0,TxWx,2013-02-07 08:45:00,
2013-02-07 02:51:00,30.1,26.0,30.11,SE,136,5.1,5.4,87,0.00,,,0.00,0,TxWx,2013-02-07 08:51:00,
2013-02-07 02:56:00,30.2,26.0,30.11,SE,126,2.4,2.7,87,0.00,,,0.00,0,TxWx,2013-02-07 08:56:00,
2013-02-07 03:01:00,30.1,26.0,30.11,ESE,113,4.2,4.2,87,0.00,,,0.00,0,TxWx,2013-02-07 09:01:00,
2013-02-07 03:06:00,30.0,26.0,30.10,SE,128,4.2,4.2,87,0.00,,,0.00,0,TxWx,2013-02-07 09:06:00,
2013-02-07 03:12:00,30.1,26.0,30.11,SE,131,2.1,2.7,87,0.00,,,0.00,0,TxWx,2013-02-07 09:12:00,
2013-02-07 03:17:00,30.1,26.0,30.11,SE,138,1.5,1.5,87,0.00,,,0.00,0,TxWx,2013-02-07 09:17:00,
2013-02-07 03:22:00,30.1,26.0,30.11,SSE,147,3.3,3.9,87,0.00,,,0.00,0,TxWx,2013-02-07 09:22:00,
2013-02-07 03:27:00,30.1,26.0,30.11,SE,140,6.6,6.9,88,0.00,,,0.00,0,TxWx,2013-02-07 09:27:00,
2013-02-07 03:32:00,30.3,26.0,30.11,SSE,151,3.0,3.3,88,0.00,,,0.00,0,TxWx,2013-02-07 09:32:00,
2013-02-07 03:38:00,30.4,26.0,30.11,ESE,123,2.1,2.4,87,0.00,,,0.00,0,TxWx,2013-02-07 09:38:00,
2013-02-07 03:43:00,30.6,27.0,30.11,ESE,102,3.6,3.6,87,0.00,,,0.00,0,TxWx,2013-02-07 09:43:00,
2013-02-07 03:48:00,30.6,27.0,30.11,SE,134,3.0,3.0,87,0.00,,,0.00,0,TxWx,2013-02-07 09:48:00,
2013-02-07 03:53:00,30.7,27.0,30.11,ESE,106,3.9,4.2,87,0.00,,,0.00,0,TxWx,2013-02-07 09:53:00,
2013-02-07 03:59:00,30.6,26.0,30.11,ESE,114,3.6,3.9,87,0.00,,,0.00,0,TxWx,2013-02-07 09:59:00,
2013-02-07 04:04:00,30.6,26.0,30.11,East,86,3.6,3.9,87,0.00,,,0.00,0,TxWx,2013-02-07 10:04:00,
2013-02-07 04:09:00,30.6,26.0,30.11,ESE,123,6.9,6.9,87,0.00,,,0.00,0,TxWx,2013-02-07 10:09:00,
2013-02-07 04:14:00,30.5,26.0,30.11,SE,141,3.9,3.9,87,0.00,,,0.00,0,TxWx,2013-02-07 10:14:00,
2013-02-07 04:19:00,30.4,25.0,30.11,ESE,123,5.1,5.4,87,0.00,,,0.00,0,TxWx,2013-02-07 10:19:00,
2013-02-07 04:24:00,30.5,26.0,30.11,East,89,4.2,4.2,87,0.00,,,0.00,0,TxWx,2013-02-07 10:24:00,
2013-02-07 04:30:00,30.4,26.0,30.10,ESE,113,6.6,6.6,87,0.00,,,0.00,0,TxWx,2013-02-07 10:30:00,
2013-02-07 04:35:00,30.5,26.0,30.11,ESE,110,3.9,3.9,87,0.00,,,0.00,0,TxWx,2013-02-07 10:35:00,
2013-02-07 04:40:00,30.4,26.0,30.10,ESE,123,8.4,9.0,87,0.00,,,0.00,0,TxWx,2013-02-07 10:40:00,
2013-02-07 04:45:00,30.5,26.0,30.10,SSE,154,6.0,6.0,87,0.00,,,0.00,0,TxWx,2013-02-07 10:45:00,
2013-02-07 04:51:00,30.5,27.0,30.11,SSE,154,4.8,5.4,87,0.00,,,0.00,0,TxWx,2013-02-07 10:51:00,
2013-02-07 04:56:00,30.5,27.0,30.11,SE,140,4.8,4.8,87,0.00,,,0.00,0,TxWx,2013-02-07 10:56:00,
2013-02-07 05:01:00,30.7,27.0,30.11,SE,132,3.6,3.6,87,0.00,,,0.00,0,TxWx,2013-02-07 11:01:00,
2013-02-07 05:06:00,30.7,27.0,30.11,SE,140,1.5,2.1,87,0.00,,,0.00,0,TxWx,2013-02-07 11:06:00,
2013-02-07 05:11:00,30.8,27.0,30.11,ESE,107,3.9,4.5,87,0.00,,,0.00,0,TxWx,2013-02-07 11:11:00,
2013-02-07 05:17:00,30.8,27.0,30.11,SE,124,4.5,4.5,87,0.00,,,0.00,0,TxWx,2013-02-07 11:17:00,
2013-02-07 05:22:00,30.9,27.0,30.11,ESE,110,3.9,4.8,87,0.00,,,0.00,0,TxWx,2013-02-07 11:22:00,
2013-02-07 05:27:00,30.8,26.0,30.11,ESE,110,5.1,5.1,87,0.00,,,0.00,0,TxWx,2013-02-07 11:27:00,
2013-02-07 05:32:00,30.8,27.0,30.11,SE,138,3.3,3.3,87,0.00,,,0.00,0,TxWx,2013-02-07 11:32:00,
2013-02-07 05:38:00,30.8,27.0,30.12,SSE,149,3.6,3.6,87,0.00,,,0.00,0,TxWx,2013-02-07 11:38:00,
2013-02-07 05:43:00,30.7,27.0,30.11,East,101,5.4,6.0,87,0.00,,,0.00,0,TxWx,2013-02-07 11:43:00,
2013-02-07 05:48:00,30.7,27.0,30.11,ESE,106,4.2,4.2,87,0.00,,,0.00,0,TxWx,2013-02-07 11:48:00,
2013-02-07 05:53:00,30.7,27.0,30.11,ESE,109,5.7,5.7,87,0.00,,,0.00,0,TxWx,2013-02-07 11:53:00,
2013-02-07 05:58:00,30.7,27.0,30.11,SE,124,3.9,4.2,87,0.00,,,0.00,0,TxWx,2013-02-07 11:58:00,
2013-02-07 06:03:00,30.7,27.0,30.10,ESE,108,4.8,4.8,88,0.00,,,0.00,0,TxWx,2013-02-07 12:03:00,
2013-02-07 06:08:00,30.7,27.0,30.10,SSE,147,3.9,4.2,88,0.00,,,0.00,0,TxWx,2013-02-07 12:08:00,
2013-02-07 06:13:00,30.8,27.0,30.11,SE,142,1.8,1.8,88,0.00,,,0.00,0,TxWx,2013-02-07 12:13:00,
2013-02-07 06:18:00,30.8,27.0,30.11,SE,140,5.4,5.4,88,0.00,,,0.00,0,TxWx,2013-02-07 12:18:00,
2013-02-07 06:23:00,30.9,27.0,30.10,SSE,148,3.0,3.3,88,0.00,,,0.00,0,TxWx,2013-02-07 12:23:00,
2013-02-07 06:28:00,30.9,27.0,30.10,ESE,111,7.5,7.5,88,0.00,,,0.00,0,TxWx,2013-02-07 12:28:00,
2013-02-07 06:33:00,30.9,27.0,30.09,SE,139,4.2,4.8,88,0.00,,,0.00,0,TxWx,2013-02-07 12:33:00,
2013-02-07 06:39:00,31.0,27.0,30.09,SE,130,4.2,4.5,88,0.00,,,0.00,0,TxWx,2013-02-07 12:39:00,
2013-02-07 06:44:00,31.0,27.0,30.09,SE,144,6.0,6.6,87,0.00,,,0.00,0,TxWx,2013-02-07 12:44:00,
2013-02-07 06:49:00,31.0,27.0,30.09,SE,127,3.9,4.5,87,0.00,,,0.00,0,TxWx,2013-02-07 12:49:00,
2013-02-07 06:54:00,31.0,27.0,30.09,East,101,4.8,5.4,87,0.00,,,0.00,0,TxWx,2013-02-07 12:54:00,
2013-02-07 06:59:00,31.1,27.0,30.08,SE,125,6.3,7.8,87,0.00,,,0.00,0,TxWx,2013-02-07 12:59:00,
2013-02-07 07:05:00,31.1,27.0,30.08,SE,124,8.1,8.1,87,0.00,,,0.00,1,TxWx,2013-02-07 13:05:00,
2013-02-07 07:10:00,31.1,27.0,30.08,NE,37,6.6,7.2,87,0.00,,,0.00,3,TxWx,2013-02-07 13:10:00,
2013-02-07 07:15:00,31.1,27.0,30.07,SE,143,12.0,13.5,87,0.00,,,0.00,4,TxWx,2013-02-07 13:15:00,
2013-02-07 07:20:00,31.1,27.0,30.07,SE,138,3.3,3.3,87,0.00,,,0.00,6,TxWx,2013-02-07 13:20:00,
2013-02-07 07:25:00,31.1,27.0,30.07,ESE,113,9.0,10.5,88,0.00,,,0.00,13,TxWx,2013-02-07 13:25:00,
2013-02-07 07:31:00,31.2,27.0,30.07,East,100,6.6,6.6,88,0.00,,,0.00,16,TxWx,2013-02-07 13:31:00,
2013-02-07 07:36:00,31.2,27.0,30.08,SE,127,4.5,5.1,88,0.00,,,0.00,20,TxWx,2013-02-07 13:36:00,
2013-02-07 07:41:00,31.2,27.0,30.08,SE,136,4.8,4.8,88,0.00,,,0.00,21,TxWx,2013-02-07 13:41:00,
2013-02-07 07:46:00,31.2,27.0,30.08,ESE,123,3.9,3.9,88,0.00,,,0.00,20,TxWx,2013-02-07 13:46:00,
2013-02-07 07:52:00,31.2,27.0,30.08,SSE,156,7.2,7.2,88,0.00,,,0.00,24,TxWx,2013-02-07 13:52:00,
2013-02-07 07:57:00,31.4,27.0,30.08,ESE,106,3.6,3.6,88,0.00,,,0.00,24,TxWx,2013-02-07 13:57:00,
2013-02-07 08:02:00,31.4,27.0,30.08,SE,131,5.4,5.4,88,0.00,,,0.00,26,TxWx,2013-02-07 14:02:00,
2013-02-07 08:07:00,31.4,27.0,30.07,SE,145,6.0,6.6,88,0.00,,,0.00,26,TxWx,2013-02-07 14:07:00,
2013-02-07 08:12:00,31.5,27.0,30.07,NE,39,7.2,7.2,88,0.00,,,0.00,29,TxWx,2013-02-07 14:12:00,
2013-02-07 08:17:00,31.5,28.0,30.08,SE,139,2.4,3.0,88,0.00,,,0.00,32,TxWx,2013-02-07 14:17:00,
2013-02-07 08:22:00,31.6,28.0,30.07,SE,128,6.3,6.3,88,0.00,,,0.00,38,TxWx,2013-02-07 14:22:00,
2013-02-07 08:28:00,31.6,28.0,30.07,SE,145,8.1,8.1,87,0.00,,,0.00,42,TxWx,2013-02-07 14:28:00,
2013-02-07 08:33:00,31.6,27.0,30.07,ESE,123,9.0,9.0,87,0.00,,,0.00,36,TxWx,2013-02-07 14:33:00,
2013-02-07 08:38:00,31.7,27.0,30.06,SSE,152,5.4,5.4,87,0.00,,,0.00,36,TxWx,2013-02-07 14:38:00,
2013-02-07 08:43:00,31.7,27.0,30.06,SSE,158,5.4,5.4,87,0.00,,,0.00,53,TxWx,2013-02-07 14:43:00,
2013-02-07 08:48:00,31.7,27.0,30.05,ESE,111,7.5,9.0,87,0.00,,,0.00,63,TxWx,2013-02-07 14:48:00,
2013-02-07 08:54:00,31.8,27.0,30.05,SE,138,7.2,7.8,87,0.00,,,0.00,73,TxWx,2013-02-07 14:54:00,
2013-02-07 08:59:00,31.8,27.0,30.05,SE,125,8.7,9.3,86,0.00,,,0.00,79,TxWx,2013-02-07 14:59:00,
2013-02-07 09:04:00,31.9,27.0,30.04,ESE,123,10.8,10.8,86,0.00,,,0.00,74,TxWx,2013-02-07 15:04:00,
2013-02-07 09:09:00,32.0,27.0,30.04,SE,130,9.6,10.2,86,0.00,,,0.00,102,TxWx,2013-02-07 15:09:00,
2013-02-07 09:14:00,32.2,27.0,30.03,SE,127,7.5,7.5,86,0.00,,,0.00,136,TxWx,2013-02-07 15:14:00,
2013-02-07 09:20:00,32.2,27.0,30.03,SE,141,9.3,9.9,86,0.00,,,0.00,138,TxWx,2013-02-07 15:20:00,
2013-02-07 09:25:00,32.5,27.0,30.02,ESE,105,3.9,4.5,86,0.00,,,0.00,124,TxWx,2013-02-07 15:25:00,
2013-02-07 09:30:00,32.5,28.0,30.02,SE,146,9.0,11.1,85,0.00,,,0.00,138,TxWx,2013-02-07 15:30:00,
2013-02-07 09:35:00,32.7,28.0,30.03,SSE,160,7.2,8.1,85,0.00,,,0.00,165,TxWx,2013-02-07 15:35:00,
2013-02-07 09:40:00,33.1,28.0,30.03,South,181,3.6,3.6,85,0.00,,,0.00,213,TxWx,2013-02-07 15:40:00,
2013-02-07 09:45:00,33.4,28.0,30.03,SE,135,6.9,7.8,84,0.00,,,0.00,271,TxWx,2013-02-07 15:45:00,
2013-02-07 09:50:00,33.4,28.0,30.03,SE,135,10.8,10.8,84,0.00,,,0.00,292,TxWx,2013-02-07 15:50:00,
2013-02-07 09:55:00,33.5,27.0,30.02,SE,141,7.5,7.5,83,0.00,,,0.00,390,TxWx,2013-02-07 15:55:00,
2013-02-07 10:00:00,33.8,28.0,30.03,SE,135,7.2,9.3,82,0.00,,,0.00,381,TxWx,2013-02-07 16:00:00,
2013-02-07 10:06:00,34.5,28.0,30.04,ESE,114,3.9,4.5,82,0.00,,,0.00,400,TxWx,2013-02-07 16:06:00,
2013-02-07 10:11:00,34.7,29.0,30.03,ESE,110,4.5,4.8,81,0.00,,,0.00,309,TxWx,2013-02-07 16:11:00,
2013-02-07 10:16:00,34.3,28.0,30.03,SE,133,3.9,3.9,81,0.00,,,0.00,284,TxWx,2013-02-07 16:16:00,
2013-02-07 10:21:00,34.2,28.0,30.02,SE,126,5.4,6.3,81,0.00,,,0.00,367,TxWx,2013-02-07 16:21:00,
2013-02-07 10:27:00,34.6,28.0,30.03,SE,129,8.4,8.7,80,0.00,,,0.00,676,TxWx,2013-02-07 16:27:00,
2013-02-07 10:32:00,35.3,28.0,30.02,SSE,155,6.3,6.6,79,0.00,,,0.00,398,TxWx,2013-02-07 16:32:00,
2013-02-07 10:37:00,35.7,29.0,30.02,SSE,165,8.4,8.4,78,0.00,,,0.00,615,TxWx,2013-02-07 16:37:00,
2013-02-07 10:42:00,36.0,28.0,30.02,SE,125,7.8,8.4,77,0.00,,,0.00,621,TxWx,2013-02-07 16:42:00,
2013-02-07 10:48:00,36.6,29.0,30.02,ESE,112,5.1,5.1,76,0.00,,,0.00,617,TxWx,2013-02-07 16:48:00,
2013-02-07 10:53:00,37.0,29.0,30.02,SE,138,3.6,4.2,76,0.00,,,0.00,616,TxWx,2013-02-07 16:53:00,
2013-02-07 10:58:00,37.2,29.0,30.02,SE,145,8.4,9.9,75,0.00,,,0.00,426,TxWx,2013-02-07 16:58:00,
2013-02-07 11:03:00,37.3,29.0,30.02,SSE,163,9.0,9.0,75,0.00,,,0.00,478,TxWx,2013-02-07 17:03:00,
2013-02-07 11:08:00,37.3,28.0,30.01,SE,126,3.9,4.5,74,0.00,,,0.00,603,TxWx,2013-02-07 17:08:00,
2013-02-07 11:13:00,37.8,30.0,30.01,SE,145,5.4,5.4,75,0.00,,,0.00,807,TxWx,2013-02-07 17:13:00,
2013-02-07 11:19:00,38.3,29.0,30.01,SE,142,1.8,2.1,74,0.00,,,0.00,486,TxWx,2013-02-07 17:19:00,
2013-02-07 11:24:00,38.4,29.0,30.01,ESE,103,2.7,2.7,73,0.00,,,0.00,731,TxWx,2013-02-07 17:24:00,
2013-02-07 11:29:00,38.6,30.0,30.00,ESE,123,4.5,4.5,73,0.00,,,0.00,709,TxWx,2013-02-07 17:29:00,
2013-02-07 11:34:00,38.9,30.0,30.00,SE,126,6.0,6.0,73,0.00,,,0.00,696,TxWx,2013-02-07 17:34:00,
2013-02-07 11:39:00,38.8,30.0,30.00,ESE,111,3.0,3.0,73,0.00,,,0.00,442,TxWx,2013-02-07 17:39:00,
2013-02-07 11:44:00,39.5,30.0,29.99,SSE,148,2.4,2.7,74,0.00,,,0.00,386,TxWx,2013-02-07 17:44:00,
2013-02-07 11:49:00,39.4,30.0,29.99,SE,131,4.2,4.2,73,0.00,,,0.00,329,TxWx,2013-02-07 17:49:00,
2013-02-07 11:54:00,39.6,32.0,29.98,SE,133,9.3,9.3,73,0.00,,,0.00,360,TxWx,2013-02-07 17:54:00,
2013-02-07 11:59:00,40.0,31.0,29.98,SE,130,3.3,3.3,72,0.00,,,0.00,352,TxWx,2013-02-07 17:59:00,
2013-02-07 12:05:00,40.0,32.0,29.98,SSE,162,3.9,3.9,73,0.00,,,0.00,317,TxWx,2013-02-07 18:05:00,
2013-02-07 12:10:00,40.0,31.0,29.97,SE,130,7.8,7.8,73,0.00,,,0.00,323,TxWx,2013-02-07 18:10:00,
2013-02-07 12:15:00,40.1,31.0,29.97,SSE,153,3.9,3.9,72,0.00,,,0.00,342,TxWx,2013-02-07 18:15:00,
2013-02-07 12:20:00,40.1,31.0,29.97,South,178,6.3,6.9,72,0.00,,,0.00,312,TxWx,2013-02-07 18:20:00,
2013-02-07 12:25:00,40.2,31.0,29.95,SSE,156,8.7,8.7,72,0.00,,,0.00,282,TxWx,2013-02-07 18:25:00,
2013-02-07 12:30:00,40.4,31.0,29.96,SE,131,6.3,6.3,72,0.00,,,0.00,338,TxWx,2013-02-07 18:30:00,
2013-02-07 12:35:00,40.6,33.0,29.95,SE,141,3.0,3.6,72,0.00,,,0.00,380,TxWx,2013-02-07 18:35:00,
2013-02-07 12:41:00,40.7,32.0,29.95,SE,129,3.3,3.6,72,0.00,,,0.00,348,TxWx,2013-02-07 18:41:00,
2013-02-07 12:46:00,41.2,32.0,29.95,SSE,164,4.2,5.1,72,0.00,,,0.00,335,TxWx,2013-02-07 18:46:00,
2013-02-07 12:51:00,40.9,32.0,29.94,SE,138,6.3,6.3,71,0.00,,,0.00,519,TxWx,2013-02-07 18:51:00,
2013-02-07 12:56:00,41.2,31.0,29.94,SE,133,6.0,6.0,70,0.00,,,0.00,375,TxWx,2013-02-07 18:56:00,
2013-02-07 13:02:00,41.0,31.0,29.94,SSE,153,5.1,5.4,70,0.00,,,0.00,317,TxWx,2013-02-07 19:02:00,
2013-02-07 13:07:00,41.3,32.0,29.93,ESE,110,4.5,4.8,71,0.00,,,0.00,315,TxWx,2013-02-07 19:07:00,
2013-02-07 13:12:00,41.3,31.0,29.93,SE,125,5.4,5.4,70,0.00,,,0.00,379,TxWx,2013-02-07 19:12:00,
2013-02-07 13:17:00,41.9,33.0,29.92,SE,125,8.1,8.1,70,0.00,,,0.00,497,TxWx,2013-02-07 19:17:00,
2013-02-07 13:23:00,41.8,33.0,29.91,East,90,7.2,7.2,70,0.00,,,0.00,598,TxWx,2013-02-07 19:23:00,
2013-02-07 13:28:00,41.5,32.0,29.92,ENE,75,5.1,6.0,71,0.00,,,0.00,519,TxWx,2013-02-07 19:28:00,
2013-02-07 13:33:00,41.4,32.0,29.91,East,101,6.6,7.8,72,0.00,,,0.00,234,TxWx,2013-02-07 19:33:00,
2013-02-07 13:38:00,41.3,33.0,29.91,ENE,64,6.0,7.5,72,0.00,,,0.00,290,TxWx,2013-02-07 19:38:00,
2013-02-07 13:43:00,41.4,32.0,29.90,East,83,8.7,9.3,72,0.00,,,0.00,343,TxWx,2013-02-07 19:43:00,
2013-02-07 13:48:00,41.5,32.0,29.90,SE,124,6.0,8.7,72,0.00,,,0.00,305,TxWx,2013-02-07 19:48:00,
2013-02-07 13:53:00,41.4,33.0,29.90,ESE,102,7.8,8.4,72,0.00,,,0.00,418,TxWx,2013-02-07 19:53:00,
2013-02-07 13:58:00,41.8,34.0,29.90,ENE,60,4.5,4.5,72,0.00,,,0.00,358,TxWx,2013-02-07 19:58:00,
2013-02-07 14:04:00,41.8,33.0,29.90,ENE,70,6.9,6.9,72,0.00,,,0.00,227,TxWx,2013-02-07 20:04:00,
2013-02-07 14:09:00,41.9,34.0,29.89,NNE,16,3.6,4.2,72,0.00,,,0.00,251,TxWx,2013-02-07 20:09:00,
2013-02-07 14:14:00,41.7,34.0,29.89,ENE,67,4.8,6.3,73,0.00,,,0.00,285,TxWx,2013-02-07 20:14:00,
2013-02-07 14:20:00,41.7,34.0,29.89,ESE,107,3.6,4.2,73,0.00,,,0.00,287,TxWx,2013-02-07 20:20:00,
2013-02-07 14:25:00,41.9,34.0,29.89,East,86,7.5,9.6,73,0.00,,,0.00,272,TxWx,2013-02-07 20:25:00,
2013-02-07 14:30:00,42.1,34.0,29.89,East,85,5.1,6.3,73,0.00,,,0.00,255,TxWx,2013-02-07 20:30:00,
2013-02-07 14:35:00,42.3,34.0,29.89,ENE,67,4.8,5.1,72,0.00,,,0.00,175,TxWx,2013-02-07 20:35:00,
2013-02-07 14:40:00,41.9,34.0,29.88,East,95,5.4,5.7,73,0.00,,,0.00,155,TxWx,2013-02-07 20:40:00,
2013-02-07 14:45:00,41.9,34.0,29.88,ENE,68,3.6,3.6,73,0.00,,,0.00,124,TxWx,2013-02-07 20:45:00,
2013-02-07 14:50:00,42.0,34.0,29.87,ENE,66,4.2,4.2,73,0.00,,,0.00,159,TxWx,2013-02-07 20:50:00,
2013-02-07 14:56:00,41.8,34.0,29.87,NE,54,7.8,7.8,73,0.00,,,0.00,133,TxWx,2013-02-07 20:56:00,
2013-02-07 15:01:00,41.7,34.0,29.87,NE,51,3.9,4.2,73,0.00,,,0.00,124,TxWx,2013-02-07 21:01:00,
2013-02-07 15:06:00,41.8,34.0,29.87,ENE,66,4.5,5.1,73,0.00,,,0.00,83,TxWx,2013-02-07 21:06:00,
2013-02-07 15:11:00,41.8,34.0,29.87,NE,41,2.7,3.3,73,0.00,,,0.00,67,TxWx,2013-02-07 21:11:00,
2013-02-07 15:16:00,41.8,34.0,29.87,East,79,4.5,4.5,73,0.00,,,0.00,61,TxWx,2013-02-07 21:16:00,
2013-02-07 15:21:00,41.8,34.0,29.86,East,89,3.6,3.6,73,0.00,,,0.00,68,TxWx,2013-02-07 21:21:00,
2013-02-07 15:27:00,42.0,34.0,29.86,ENE,71,4.2,4.2,74,0.00,,,0.00,70,TxWx,2013-02-07 21:27:00,
2013-02-07 15:32:00,42.1,34.0,29.86,NE,55,2.1,2.1,74,0.00,,,0.00,54,TxWx,2013-02-07 21:32:00,
2013-02-07 15:37:00,42.3,34.0,29.86,East,83,1.2,1.2,74,0.00,,,0.00,45,TxWx,2013-02-07 21:37:00,
2013-02-07 15:42:00,42.3,34.0,29.86,ENE,62,3.3,3.3,74,0.00,,,0.00,37,TxWx,2013-02-07 21:42:00,
2013-02-07 15:47:00,42.3,34.0,29.85,ENE,58,3.3,3.6,74,0.00,,,0.00,29,TxWx,2013-02-07 21:47:00,
2013-02-07 15:52:00,42.2,34.0,29.85,East,91,5.1,5.7,74,0.00,,,0.00,29,TxWx,2013-02-07 21:52:00,
2013-02-07 15:57:00,41.9,34.0,29.84,East,83,5.7,6.0,74,0.00,,,0.00,44,TxWx,2013-02-07 21:57:00,
2013-02-07 16:02:00,41.8,34.0,29.84,East,97,4.5,4.5,75,0.00,,,0.00,46,TxWx,2013-02-07 22:02:00,
2013-02-07 16:07:00,41.6,35.0,29.83,ENE,78,5.1,5.7,75,0.00,,,0.00,30,TxWx,2013-02-07 22:07:00,
2013-02-07 16:12:00,41.5,35.0,29.84,East,93,5.4,5.4,75,0.00,,,0.00,28,TxWx,2013-02-07 22:12:00,
2013-02-07 16:18:00,41.4,34.0,29.83,ENE,72,3.0,3.0,76,0.00,,,0.00,17,TxWx,2013-02-07 22:18:00,
2013-02-07 16:23:00,41.2,34.0,29.83,ENE,78,5.4,5.4,77,0.00,,,0.00,11,TxWx,2013-02-07 22:23:00,
2013-02-07 16:28:00,41.0,35.0,29.83,ENE,73,3.6,3.6,78,0.00,,,0.00,16,TxWx,2013-02-07 22:28:00,
2013-02-07 16:33:00,40.7,35.0,29.83,East,81,3.9,3.9,80,0.00,,,0.00,12,TxWx,2013-02-07 22:33:00,
2013-02-07 16:38:00,40.4,34.0,29.84,ENE,57,2.4,2.4,80,0.00,,,0.01,6,TxWx,2013-02-07 22:38:00,
2013-02-07 16:43:00,40.2,34.0,29.84,North,359,1.2,1.2,81,0.06,,,0.01,5,TxWx,2013-02-07 22:43:00,
2013-02-07 16:48:00,40.1,35.0,29.84,NE,46,2.1,2.1,82,0.06,,,0.01,5,TxWx,2013-02-07 22:48:00,
2013-02-07 16:53:00,40.0,35.0,29.84,ENE,61,0.9,0.9,83,0.06,,,0.02,3,TxWx,2013-02-07 22:53:00,
2013-02-07 16:58:00,39.9,36.0,29.84,ENE,73,1.2,1.2,84,0.06,,,0.02,1,TxWx,2013-02-07 22:58:00,
2013-02-07 17:04:00,39.7,36.0,29.84,East,92,1.2,1.2,85,0.00,,,0.03,0,TxWx,2013-02-07 23:04:00,
2013-02-07 17:09:00,39.5,36.0,29.84,East,97,0.3,0.3,86,0.00,,,0.03,0,TxWx,2013-02-07 23:09:00,
2013-02-07 17:14:00,39.4,35.0,29.83,NE,34,1.8,1.8,86,0.06,,,0.04,0,TxWx,2013-02-07 23:14:00,
2013-02-07 17:19:00,39.4,35.0,29.84,NNE,12,0.0,0.0,87,0.06,,,0.04,0,TxWx,2013-02-07 23:19:00,
2013-02-07 17:24:00,39.3,35.0,29.84,North,5,0.6,0.6,87,0.06,,,0.04,0,TxWx,2013-02-07 23:24:00,
2013-02-07 17:30:00,39.1,35.0,29.84,NE,41,1.5,1.8,87,0.06,,,0.05,0,TxWx,2013-02-07 23:30:00,
2013-02-07 17:35:00,39.0,36.0,29.84,NNE,32,1.8,1.8,88,0.06,,,0.05,0,TxWx,2013-02-07 23:35:00,
2013-02-07 17:40:00,38.9,36.0,29.84,North,9,1.5,1.5,88,0.06,,,0.06,0,TxWx,2013-02-07 23:40:00,
2013-02-07 17:45:00,38.7,36.0,29.83,North,9,2.7,2.7,89,0.06,,,0.06,0,TxWx,2013-02-07 23:45:00,
2013-02-07 17:50:00,38.6,36.0,29.84,North,351,1.8,2.1,90,0.00,,,0.06,0,TxWx,2013-02-07 23:50:00,
2013-02-07 17:55:00,38.5,36.0,29.84,NNE,14,1.5,1.5,90,0.00,,,0.07,0,TxWx,2013-02-07 23:55:00,
2013-02-07 18:00:00,38.4,35.0,29.84,NNE,30,2.7,2.7,90,0.06,,,0.07,0,TxWx,2013-02-08 00:00:00,
2013-02-07 18:06:00,38.2,35.0,29.84,NNE,12,3.3,3.3,91,0.06,,,0.08,0,TxWx,2013-02-08 00:06:00,
2013-02-07 18:11:00,38.0,36.0,29.84,NNE,26,3.0,3.0,91,0.06,,,0.08,0,TxWx,2013-02-08 00:11:00,
2013-02-07 18:16:00,37.8,36.0,29.84,NNW,342,2.7,3.3,91,0.06,,,0.09,0,TxWx,2013-02-08 00:16:00,
2013-02-07 18:21:00,37.7,36.0,29.84,NNE,16,5.4,5.4,92,0.06,,,0.09,0,TxWx,2013-02-08 00:21:00,
2013-02-07 18:26:00,37.6,36.0,29.84,NNE,22,3.0,3.3,92,0.06,,,0.10,0,TxWx,2013-02-08 00:26:00,
2013-02-07 18:31:00,37.5,35.0,29.84,NNE,25,3.3,3.9,92,0.06,,,0.10,0,TxWx,2013-02-08 00:31:00,
2013-02-07 18:37:00,37.3,35.0,29.84,NNE,29,2.1,2.1,92,0.06,,,0.11,0,TxWx,2013-02-08 00:37:00,
2013-02-07 18:42:00,37.2,35.0,29.84,NNE,33,2.1,2.1,93,0.12,,,0.12,0,TxWx,2013-02-08 00:42:00,
2013-02-07 18:47:00,37.1,35.0,29.84,North,5,3.0,3.0,93,0.12,,,0.13,0,TxWx,2013-02-08 00:47:00,
2013-02-07 18:52:00,37.1,35.0,29.84,NNE,12,2.1,2.1,93,0.06,,,0.14,0,TxWx,2013-02-08 00:52:00,
2013-02-07 18:57:00,37.0,35.0,29.84,ENE,59,2.4,2.4,93,0.06,,,0.14,0,TxWx,2013-02-08 00:57:00,
2013-02-07 19:02:00,36.9,35.0,29.83,NE,34,3.3,3.9,93,0.12,,,0.15,0,TxWx,2013-02-08 01:02:00,
2013-02-07 19:08:00,36.9,35.0,29.83,NE,53,3.9,3.9,93,0.12,,,0.16,0,TxWx,2013-02-08 01:08:00,
2013-02-07 19:13:00,36.8,35.0,29.83,NE,42,3.9,3.9,94,0.12,,,0.17,0,TxWx,2013-02-08 01:13:00,
2013-02-07 19:18:00,36.6,35.0,29.83,NE,56,3.6,3.9,94,0.12,,,0.18,0,TxWx,2013-02-08 01:18:00,
2013-02-07 19:23:00,36.5,35.0,29.83,NNE,28,5.4,5.4,94,0.06,,,0.18,0,TxWx,2013-02-08 01:23:00,
2013-02-07 19:28:00,36.5,35.0,29.83,NNE,12,3.9,3.9,94,0.06,,,0.19,0,TxWx,2013-02-08 01:28:00,
2013-02-07 19:33:00,36.5,35.0,29.83,NNE,14,3.3,3.3,94,0.06,,,0.19,0,TxWx,2013-02-08 01:33:00,
2013-02-07 19:38:00,36.5,34.0,29.82,NNE,28,2.4,2.7,94,0.06,,,0.20,0,TxWx,2013-02-08 01:38:00,
2013-02-07 19:43:00,36.5,35.0,29.83,NNE,15,0.6,0.6,94,0.06,,,0.20,0,TxWx,2013-02-08 01:43:00,
2013-02-07 19:48:00,36.4,34.0,29.82,NNE,31,2.7,2.7,94,0.06,,,0.20,0,TxWx,2013-02-08 01:48:00,
2013-02-07 19:54:00,36.4,35.0,29.82,WNW,291,2.7,2.7,95,0.00,,,0.21,0,TxWx,2013-02-08 01:54:00,
2013-02-07 19:59:00,36.4,35.0,29.83,North,356,0.9,0.9,95,0.00,,,0.21,0,TxWx,2013-02-08 01:59:00,
2013-02-07 20:04:00,36.2,35.0,29.83,NNW,346,2.1,2.4,95,0.06,,,0.21,0,TxWx,2013-02-08 02:04:00,
2013-02-07 20:09:00,36.1,35.0,29.83,NNW,339,2.1,2.7,95,0.06,,,0.21,0,TxWx,2013-02-08 02:09:00,
2013-02-07 20:14:00,36.0,35.0,29.83,NW,311,3.6,4.2,95,0.00,,,0.21,0,TxWx,2013-02-08 02:14:00,
2013-02-07 20:19:00,35.9,35.0,29.83,North,358,1.8,1.8,95,0.00,,,0.21,0,TxWx,2013-02-08 02:19:00,
2013-02-07 20:24:00,35.5,34.0,29.83,NNW,335,2.4,2.7,95,0.00,,,0.22,0,TxWx,2013-02-08 02:24:00,
2013-02-07 20:29:00,35.1,34.0,29.83,NNW,328,5.7,5.7,95,0.00,,,0.22,0,TxWx,2013-02-08 02:29:00,
2013-02-07 20:34:00,34.9,34.0,29.83,NNE,26,6.6,6.6,95,0.06,,,0.23,0,TxWx,2013-02-08 02:34:00,
2013-02-07 20:39:00,34.8,34.0,29.83,NNE,21,4.8,4.8,95,0.06,,,0.23,0,TxWx,2013-02-08 02:39:00,
2013-02-07 20:45:00,34.7,34.0,29.83,NW,317,3.6,3.6,95,0.06,,,0.24,0,TxWx,2013-02-08 02:45:00,
2013-02-07 20:50:00,34.6,34.0,29.83,NW,322,5.1,5.1,96,0.06,,,0.24,0,TxWx,2013-02-08 02:50:00,
2013-02-07 20:55:00,34.6,34.0,29.84,North,7,1.5,1.5,96,0.06,,,0.24,0,TxWx,2013-02-08 02:55:00,
2013-02-07 21:00:00,34.4,33.0,29.83,NNE,12,7.2,7.2,96,0.06,,,0.24,0,TxWx,2013-02-08 03:00:00,
2013-02-07 21:05:00,34.3,33.0,29.83,NNW,344,3.3,3.3,96,0.00,,,0.24,0,TxWx,2013-02-08 03:05:00,
2013-02-07 21:10:00,34.3,33.0,29.83,North,356,4.8,5.4,96,0.00,,,0.24,0,TxWx,2013-02-08 03:10:00,
2013-02-07 21:15:00,34.3,33.0,29.83,WNW,288,3.0,3.0,96,0.00,,,0.24,0,TxWx,2013-02-08 03:15:00,
2013-02-07 21:20:00,34.3,33.0,29.83,ENE,63,2.1,2.7,96,0.00,,,0.24,0,TxWx,2013-02-08 03:20:00,
2013-02-07 21:25:00,34.3,33.0,29.83,NW,321,1.5,1.8,96,0.00,,,0.24,0,TxWx,2013-02-08 03:25:00,
2013-02-07 21:31:00,34.2,33.0,29.83,NNE,21,2.7,3.0,96,0.00,,,0.24,0,TxWx,2013-02-08 03:31:00,
2013-02-07 21:36:00,34.1,33.0,29.84,WNW,299,4.2,4.8,96,0.00,,,0.24,0,TxWx,2013-02-08 03:36:00,
2013-02-07 21:41:00,34.0,33.0,29.84,NW,307,1.2,1.8,96,0.00,,,0.24,0,TxWx,2013-02-08 03:41:00,
2013-02-07 21:46:00,33.9,33.0,29.84,NW,304,2.1,2.1,96,0.00,,,0.24,0,TxWx,2013-02-08 03:46:00,
2013-02-07 21:51:00,33.9,33.0,29.84,NNW,343,1.2,1.5,96,0.00,,,0.24,0,TxWx,2013-02-08 03:51:00,
2013-02-07 21:56:00,33.8,33.0,29.84,WNW,295,2.1,2.1,96,0.00,,,0.24,0,TxWx,2013-02-08 03:56:00,
2013-02-07 22:01:00,33.7,33.0,29.84,NNW,343,6.0,6.0,96,0.00,,,0.24,0,TxWx,2013-02-08 04:01:00,
2013-02-07 22:07:00,33.7,33.0,29.85,NNW,328,4.5,5.4,96,0.00,,,0.24,0,TxWx,2013-02-08 04:07:00,
2013-02-07 22:12:00,33.7,33.0,29.85,WNW,296,8.1,8.1,97,0.00,,,0.24,0,TxWx,2013-02-08 04:12:00,
2013-02-07 22:17:00,33.7,33.0,29.85,WNW,291,6.3,6.6,97,0.00,,,0.24,0,TxWx,2013-02-08 04:17:00,
2013-02-07 22:22:00,33.6,33.0,29.85,NW,311,5.7,6.9,97,0.00,,,0.24,0,TxWx,2013-02-08 04:22:00,
2013-02-07 22:27:00,33.6,33.0,29.85,NW,308,5.4,7.2,97,0.00,,,0.25,0,TxWx,2013-02-08 04:27:00,
2013-02-07 22:32:00,33.4,32.0,29.85,NW,317,14.1,14.1,97,0.06,,,0.25,0,TxWx,2013-02-08 04:32:00,
2013-02-07 22:37:00,33.0,32.0,29.85,WNW,296,12.9,13.8,97,0.06,,,0.25,0,TxWx,2013-02-08 04:37:00,
2013-02-07 22:42:00,33.0,32.0,29.85,NNW,336,6.0,6.0,97,0.00,,,0.25,0,TxWx,2013-02-08 04:42:00,
2013-02-07 22:48:00,32.8,32.0,29.86,NW,318,6.9,6.9,97,0.00,,,0.25,0,TxWx,2013-02-08 04:48:00,
2013-02-07 22:53:00,32.7,32.0,29.85,NW,311,3.3,3.3,98,0.00,,,0.25,0,TxWx,2013-02-08 04:53:00,
2013-02-07 22:58:00,32.6,32.0,29.85,North,349,7.5,9.0,98,0.00,,,0.25,0,TxWx,2013-02-08 04:58:00,
2013-02-07 23:00:00,32.6,32.0,29.85,WNW,294,7.2,9.0,98,0.00,,,0.25,0,TxWx,2013-02-08 05:00:00,
2013-02-07 23:03:00,32.6,32.0,29.86,WNW,300,5.7,5.7,98,0.00,,,0.25,0,TxWx,2013-02-08 05:03:00,
2013-02-07 23:09:00,32.7,32.0,29.86,NNE,17,2.1,3.3,98,0.00,,,0.25,0,TxWx,2013-02-08 05:09:00,
2013-02-07 23:14:00,32.7,32.0,29.86,WNW,287,8.7,8.7,98,0.00,,,0.25,0,TxWx,2013-02-08 05:14:00,
2013-02-07 23:19:00,32.7,32.0,29.86,WNW,291,6.0,7.2,98,0.00,,,0.25,0,TxWx,2013-02-08 05:19:00,
2013-02-07 23:24:00,32.7,32.0,29.86,NW,315,7.2,7.2,98,0.00,,,0.25,0,TxWx,2013-02-08 05:24:00,
2013-02-07 23:29:00,32.6,32.0,29.86,West,276,5.1,5.1,98,0.00,,,0.25,0,TxWx,2013-02-08 05:29:00,
2013-02-07 23:35:00,32.6,32.0,29.87,West,267,5.4,7.8,98,0.00,,,0.25,0,TxWx,2013-02-08 05:35:00,
2013-02-07 23:40:00,32.6,32.0,29.87,WNW,288,11.7,11.7,98,0.00,,,0.25,0,TxWx,2013-02-08 05:40:00,
2013-02-07 23:45:00,32.7,32.0,29.87,WNW,283,3.9,3.9,98,0.00,,,0.25,0,TxWx,2013-02-08 05:45:00,
2013-02-07 23:50:00,32.7,32.0,29.87,NW,324,8.1,8.1,98,0.00,,,0.25,0,TxWx,2013-02-08 05:50:00,
2013-02-07 23:55:00,32.7,32.0,29.86,NW,318,9.9,9.9,98,0.00,,,0.25,0,TxWx,2013-02-08 05:55:00,